This is the latest recevied weather packets stored in our database for station/object XQ6AK-15. If no packets are shown the sender has not sent any weather packets the latest 10 day(s).
| Time | Temp. | Humidity | Pressure | Rain* | Wind** | Luminosity | Snow |
|---|---|---|---|---|---|---|---|
| 1787392543 | 0.56° C | 99% | 1019.4 hPa | 0 mm | - | 0 W/m² | - |
| 1787392239 | 0° C | 99% | 1019.3 hPa | 0 mm | - | 0 W/m² | - |
| 1787391934 | 0° C | 99% | 1019.3 hPa | 0 mm | - | 0 W/m² | - |
| 1787391631 | 0° C | 99% | 1019.1 hPa | 0 mm | - | 0 W/m² | - |
| 1787391326 | 0.56° C | 99% | 1018.9 hPa | 0 mm | - | 0 W/m² | - |
| 1787391024 | 0.56° C | 99% | 1019 hPa | 0 mm | - | 0 W/m² | - |
| 1787390719 | 0.56° C | 99% | 1019.1 hPa | 0 mm | - | 0 W/m² | - |
| 1787390415 | 0.56° C | 99% | 1019 hPa | 0 mm | - | 0 W/m² | - |
| 1787390111 | 0.56° C | 99% | 1019 hPa | 0 mm | - | 0 W/m² | - |
| 1787389806 | 0.56° C | 99% | 1019.2 hPa | 0 mm | - | 0 W/m² | - |
| 1787389501 | 0.56° C | 99% | 1019.2 hPa | 0 mm | - | 0 W/m² | - |
| 1787389197 | 1.11° C | 99% | 1019.1 hPa | 0 mm | - | 0 W/m² | - |
| 1787388888 | 1.11° C | 99% | 1019 hPa | 0 mm | - | 0 W/m² | - |
| 1787388584 | 1.11° C | 99% | 1019 hPa | 0 mm | - | 0 W/m² | - |
| 1787388280 | 1.67° C | 99% | 1019.1 hPa | 0 mm | - | 0 W/m² | - |
| 1787387975 | 1.11° C | 99% | 1019 hPa | 0 mm | - | 0 W/m² | - |
| 1787387672 | 1.11° C | 99% | 1019 hPa | 0 mm | - | 0 W/m² | - |
| 1787387371 | 1.11° C | 99% | 1019.2 hPa | 0 mm | - | 0 W/m² | - |
| 1787387066 | 1.11° C | 99% | 1019 hPa | 0 mm | - | 0 W/m² | - |
| 1787386761 | 1.67° C | 99% | 1019.2 hPa | 0 mm | - | 0 W/m² | - |
| 1787386457 | 1.67° C | 99% | 1019.4 hPa | 0 mm | - | 0 W/m² | - |
| 1787386152 | 1.67° C | 99% | 1019.2 hPa | 0 mm | - | 0 W/m² | - |
| 1787385849 | 1.67° C | 99% | 1019.2 hPa | 0 mm | - | 0 W/m² | - |
| 1787385543 | 1.67° C | 99% | 1019.5 hPa | 0 mm | - | 0 W/m² | - |
| 1787385243 | 1.67° C | 99% | 1019.4 hPa | 0 mm | - | 0 W/m² | - |
* Rain latest hour (hover to see other rain measurements)
** Current wind speed in m/s (hover to see current wind gust speed)